Location: Strawberry
(45.6646°N, 111.9596°W)
Time: 20:07:25
(UTC+00:00)

X-37B - Visible Passes

Search period start: 17 August 2022 00:00
Search period end: 27 August 2022 00:00
Orbit: 328 x 343 km, 45.0° (Epoch: 12 August)

Date Brightness Start Highest point End Pass type
(mag) Time Alt. Az. Time Alt. Az. Time Alt. Az.
22 Aug 1.9 03:18:02 10° SSW 03:20:10 19° SSE 03:21:14 16° ESE visible
23 Aug 0.9 03:37:46 10° SW 03:40:24 37° SSE 03:41:12 30° ESE visible
24 Aug 0.2 03:57:58 10° WSW 04:00:46 62° S 04:00:57 60° SE visible
25 Aug 1.0 04:18:21 10° W 04:20:32 48° WSW 04:20:32 48° WSW visible
26 Aug 0.3 03:03:25 10° WSW 03:06:12 62° SSE 03:08:48 12° E visible
26 Aug 2.5 04:38:47 10° W 04:40:01 23° W 04:40:01 23° W visible
